Hourly Weather Bolshie Savrushi

Today, 23 June, Wednesday

Time Temperature Precipitation Wind Pressure Humidity
00:00 +24°C° 0 mm 2 mps 753 mmHg 81%
01:00 +23°C° 0 mm 2 mps 753 mmHg 81%
02:00 +21°C° 0 mm 2 mps 753 mmHg 80%
03:00 +21°C° 0 mm 2 mps 752 mmHg 81%
04:00 +23°C° 0 mm 2 mps 752 mmHg 80%
05:00 +23°C° 0 mm 2 mps 752 mmHg 78%
06:00 +24°C° 0 mm 3 mps 752 mmHg 76%
07:00 +26°C° 0 mm 3 mps 752 mmHg 71%
08:00 +27°C° 0 mm 3 mps 752 mmHg 66%
09:00 +29°C° 0 mm 4 mps 752 mmHg 61%
10:00 +30°C° 0 mm 4 mps 752 mmHg 58%
11:00 +32°C° 0 mm 4 mps 752 mmHg 55%
12:00 +32°C° 0 mm 4 mps 752 mmHg 52%
13:00 +33°C° 0 mm 4 mps 752 mmHg 52%
14:00 +33°C° 0 mm 4 mps 752 mmHg 51%
15:00 +33°C° 0 mm 4 mps 752 mmHg 50%
16:00 +31°C° 0 mm 3 mps 752 mmHg 56%
17:00 +30°C° 0 mm 3 mps 752 mmHg 61%
18:00 +29°C° 0 mm 3 mps 752 mmHg 67%
19:00 +27°C° 0.2 mm 2 mps 752 mmHg 71%
20:00 +25°C° 0.2 mm 2 mps 752 mmHg 75%
21:00 +23°C° 0.2 mm 1 mps 752 mmHg 79%
22:00 +21°C° 0.2 mm 2 mps 752 mmHg 82%
23:00 +21°C° 0.2 mm 2 mps 752 mmHg 85%

Tomorrow, 24 June, Thursday

Time Temperature Precipitation Wind Pressure Humidity
00:00 +20°C° 0.2 mm 2 mps 752 mmHg 87%
01:00 +20°C° 0 mm 2 mps 752 mmHg 88%
02:00 +20°C° 0 mm 2 mps 752 mmHg 88%
03:00 +19°C° 0 mm 2 mps 753 mmHg 89%
04:00 +20°C° 0 mm 2 mps 753 mmHg 87%
05:00 +23°C° 0 mm 2 mps 753 mmHg 84%
06:00 +24°C° 0 mm 2 mps 753 mmHg 82%
07:00 +25°C° 0 mm 1 mps 753 mmHg 76%
08:00 +26°C° 0 mm 1 mps 753 mmHg 71%
09:00 +27°C° 0 mm 1 mps 753 mmHg 65%
10:00 +28°C° 0 mm 1 mps 753 mmHg 61%
11:00 +29°C° 0 mm 1 mps 753 mmHg 57%
12:00 +28°C° 0 mm 0 mps 753 mmHg 53%
13:00 +30°C° 0 mm 1 mps 753 mmHg 53%
14:00 +31°C° 0 mm 1 mps 753 mmHg 53%
15:00 +31°C° 0 mm 1 mps 752 mmHg 53%
16:00 +30°C° 0 mm 2 mps 752 mmHg 59%
17:00 +29°C° 0 mm 2 mps 751 mmHg 66%
18:00 +28°C° 0 mm 3 mps 751 mmHg 73%
19:00 +27°C° 0.2 mm 3 mps 751 mmHg 76%
20:00 +25°C° 0.2 mm 3 mps 751 mmHg 80%
21:00 +22°C° 0.2 mm 3 mps 751 mmHg 84%
22:00 +21°C° 2.7 mm 3 mps 751 mmHg 87%
23:00 +21°C° 2.7 mm 3 mps 751 mmHg 90%

Day after tomorrow, 25 June, Friday

Time Temperature Precipitation Wind Pressure Humidity
00:00 +20°C° 2.7 mm 4 mps 751 mmHg 93%
01:00 +20°C° 0.2 mm 3 mps 750 mmHg 93%
02:00 +20°C° 0.2 mm 3 mps 750 mmHg 93%
03:00 +20°C° 0.2 mm 2 mps 749 mmHg 93%
04:00 +20°C° 0.2 mm 2 mps 750 mmHg 91%
05:00 +21°C° 0.2 mm 2 mps 750 mmHg 90%
06:00 +22°C° 0.2 mm 3 mps 750 mmHg 88%
07:00 +24°C° 0 mm 3 mps 750 mmHg 81%
08:00 +26°C° 0 mm 2 mps 750 mmHg 75%
09:00 +27°C° 0 mm 2 mps 750 mmHg 68%
10:00 +29°C° 0 mm 3 mps 750 mmHg 65%
11:00 +30°C° 0 mm 3 mps 750 mmHg 62%
12:00 +31°C° 0 mm 3 mps 750 mmHg 59%
13:00 +31°C° 0 mm 3 mps 749 mmHg 57%
14:00 +33°C° 0 mm 3 mps 749 mmHg 56%
15:00 +34°C° 0 mm 4 mps 749 mmHg 54%
16:00 +33°C° 0 mm 3 mps 749 mmHg 59%
17:00 +31°C° 0 mm 2 mps 748 mmHg 64%
18:00 +31°C° 0 mm 2 mps 748 mmHg 69%
19:00 +29°C° 0 mm 2 mps 748 mmHg 72%
20:00 +28°C° 0 mm 2 mps 748 mmHg 74%
21:00 +26°C° 0 mm 2 mps 748 mmHg 77%
22:00 +25°C° 0 mm 3 mps 748 mmHg 78%
23:00 +24°C° 0 mm 3 mps 748 mmHg 79%

26 June, Saturday

Time Temperature Precipitation Wind Pressure Humidity
00:00 +22°C° 0 mm 4 mps 748 mmHg 81%
01:00 +22°C° 0 mm 3 mps 748 mmHg 84%
02:00 +21°C° 0 mm 3 mps 748 mmHg 88%
03:00 +20°C° 0 mm 2 mps 748 mmHg 92%
04:00 +21°C° 0 mm 2 mps 748 mmHg 88%
05:00 +23°C° 0 mm 2 mps 748 mmHg 84%
06:00 +24°C° 0 mm 2 mps 748 mmHg 80%
07:00 +25°C° 0 mm 2 mps 748 mmHg 75%
08:00 +27°C° 0 mm 2 mps 748 mmHg 71%
09:00 +28°C° 0 mm 2 mps 748 mmHg 66%
10:00 +29°C° 0.1 mm 3 mps 748 mmHg 63%
11:00 +30°C° 0.1 mm 3 mps 748 mmHg 60%
12:00 +31°C° 0.1 mm 3 mps 748 mmHg 57%
13:00 +31°C° 0.1 mm 3 mps 748 mmHg 56%
14:00 +31°C° 0.1 mm 3 mps 748 mmHg 55%
15:00 +31°C° 0.1 mm 3 mps 748 mmHg 53%
16:00 +30°C° 0.1 mm 2 mps 748 mmHg 59%
17:00 +29°C° 0.1 mm 2 mps 748 mmHg 66%
18:00 +28°C° 0.1 mm 1 mps 747 mmHg 72%
19:00 +27°C° 0.2 mm 1 mps 748 mmHg 77%
20:00 +25°C° 0.2 mm 2 mps 748 mmHg 81%
21:00 +23°C° 0.2 mm 2 mps 748 mmHg 86%
22:00 +23°C° 0.2 mm 1 mps 748 mmHg 87%
23:00 +23°C° 0.2 mm 1 mps 748 mmHg 87%

27 June, Sunday

Time Temperature Precipitation Wind Pressure Humidity
00:00 +22°C° 0.2 mm 1 mps 748 mmHg 88%
01:00 +22°C° 0 mm 1 mps 748 mmHg 88%
02:00 +22°C° 0 mm 1 mps 748 mmHg 88%
03:00 +22°C° 0 mm 1 mps 748 mmHg 88%
04:00 +23°C° 0 mm 1 mps 748 mmHg 86%
05:00 +24°C° 0 mm 1 mps 748 mmHg 83%
06:00 +25°C° 0 mm 1 mps 748 mmHg 81%
07:00 +26°C° 0.1 mm 1 mps 748 mmHg 77%
08:00 +27°C° 0.1 mm 1 mps 748 mmHg 73%
09:00 +28°C° 0.1 mm 1 mps 748 mmHg 70%
10:00 +29°C° 1.2 mm 1 mps 748 mmHg 66%
11:00 +29°C° 1.2 mm 1 mps 748 mmHg 63%
12:00 +30°C° 1.2 mm 1 mps 748 mmHg 59%
13:00 +31°C° 0.1 mm 1 mps 748 mmHg 57%
14:00 +31°C° 0.1 mm 1 mps 748 mmHg 56%
15:00 +31°C° 0.1 mm 1 mps 748 mmHg 54%
16:00 +30°C° 0.2 mm 2 mps 747 mmHg 62%
17:00 +29°C° 0.2 mm 2 mps 747 mmHg 69%
18:00 +28°C° 0.2 mm 3 mps 746 mmHg 77%
19:00 +26°C° 2.7 mm 3 mps 747 mmHg 81%
20:00 +23°C° 2.7 mm 4 mps 747 mmHg 85%
21:00 +21°C° 2.7 mm 4 mps 748 mmHg 90%
22:00 +20°C° 0.2 mm 4 mps 748 mmHg 91%
23:00 +20°C° 0.2 mm 3 mps 747 mmHg 93%

28 June, Monday

Time Temperature Precipitation Wind Pressure Humidity
00:00 +20°C° 0.2 mm 2 mps 747 mmHg 94%
01:00 +19°C° 0 mm 2 mps 747 mmHg 95%
02:00 +19°C° 0 mm 2 mps 747 mmHg 95%
03:00 +19°C° 0 mm 2 mps 747 mmHg 96%
04:00 +20°C° 0 mm 2 mps 748 mmHg 94%
05:00 +20°C° 0 mm 2 mps 748 mmHg 92%
06:00 +21°C° 0 mm 2 mps 748 mmHg 90%
07:00 +22°C° 0 mm 3 mps 748 mmHg 85%
08:00 +25°C° 0 mm 3 mps 748 mmHg 80%
09:00 +26°C° 0 mm 4 mps 748 mmHg 75%
10:00 +26°C° 0 mm 4 mps 748 mmHg 71%
11:00 +27°C° 0 mm 4 mps 748 mmHg 68%
12:00 +28°C° 0 mm 4 mps 748 mmHg 65%
13:00 +28°C° 0 mm 4 mps 748 mmHg 65%
14:00 +27°C° 0 mm 4 mps 748 mmHg 66%
15:00 +27°C° 0 mm 4 mps 748 mmHg 67%
16:00 +27°C° 0 mm 4 mps 748 mmHg 68%
17:00 +26°C° 0 mm 4 mps 748 mmHg 69%
18:00 +26°C° 0 mm 4 mps 748 mmHg 70%
19:00 +25°C° 0 mm 4 mps 748 mmHg 73%
20:00 +22°C° 0 mm 4 mps 748 mmHg 75%
21:00 +21°C° 0 mm 4 mps 748 mmHg 77%
22:00 +21°C° 0 mm 3 mps 748 mmHg 77%
23:00 +20°C° 0 mm 3 mps 748 mmHg 77%
Show more